Погода в Кулиничах

Украина / Харьковская область     49°59′06″N   36°23′16″E
темп.,
°C
ветер,
м/с
пор.,
м/с
влажн.,
%
обл.,
%
осадки,
мм/ч
давл.,
гПа
погр.,
м
13 мая, чт
чт1300:00+8юв51094100 0.6 1014375
03:00+7юв499725 0.8 1014268
06:00+7ююв379937 0.1 1013224
09:00+12ююв4677100 0.1 1013684
12:00+16ю465124 0.0 10131451
15:00+18ю45422 0.0 10131683
18:00+18ю244896 0.0 10131058
21:00+14в2256100 0.0 101413
14 мая, пт
пт1400:00+13в35817 0.0 101386
03:00+12вюв359192 0.1 101397
06:00+13вюв399196 0.1 1013232
09:00+19юв6117398 0.1 1011599
12:00+19юв81373100 0.4 1012760
15:00+22ююв6961100 0.4 10101076
18:00+22юв4865100 0.0 1009797
21:00+18ю347986 0.1 100978
15 мая, сб
сб1500:00+16зюз34775 0.0 101086
03:00+14ююз377998 0.0 1011153
06:00+13юз3983100 0.0 1012265
09:00+18ююз47624 0.0 1012641
12:00+22юз57490 0.0 10131724
15:00+23ююз5744100 0.0 10132468
18:00+19зюз2562100 0.0 1013226
21:00+17юз116530 0.0 101411
16 мая, вс
вс1600:00+17юв116332 0.0 101411
03:00+14юв11735 0.0 101411
06:00+15вюв11751 0.0 101414
09:00+20вюв235836 0.0 1014443
12:00+23в224484 0.0 10141546
15:00+25всв3340100 0.0 10131608
18:00+23св355683 0.0 1012667
21:00+20св4107394 0.1 1011259
17 мая, пн
пн1700:00+17св4984100 0.0 1010187
03:00+16св4108368 0.0 1009189
06:00+15в310805 0.0 1008230
09:00+21вюв51155100 0.0 1008484
12:00+25вюв81446100 0.0 10061221
15:00+26юв8124663 0.0 10061644
18:00+25юв59575 0.0 1005902
21:00+20юв397464 0.0 1006200